Weather History for Lafayette, LA

Change the Weather History Date:

Saturday, April 21, 2012

  Actual Average Record
Temperature  
Mean Temperature 60 °F 70 °F  
Max Temperature 67 °F 81 °F 93 °F (1987)
Min Temperature 53 °F 60 °F 41 °F (1953)
Degree Days  
Heating Degree Days 5 1  
Month to date heating degree days 5 36  
Since 1 July heating degree days 1034 1416  
Cooling Degree Days 0 6  
Month to date cooling degree days 137 96  
Year to date cooling degree days 376 191  
Growing Degree Days 10 (Base 50)    
Moisture  
Dew Point 56 °F    
Average Humidity 78    
Maximum Humidity 93    
Minimum Humidity 63    
Precipitation  
Precipitation 0.63 in 0.14 in 7.84 in (1979)
Month to date precipitation 4.79 2.69  
Year to date precipitation 22.33 16.60  
Snow  
Snow 0.00 in 0.00 in 0.00 in ()
Month to date snowfall 0.0 0.0  
Since 1 July snowfall 0.0 T  
Snow Depth 0.00 in    
Sea Level Pressure  
Sea Level Pressure 29.80 in    
Wind  
Wind Speed 13 mph (North)    
Max Wind Speed 26 mph    
Max Gust Speed 33 mph    
Visibility 8 miles    
Events Rain    
T = Trace of Precipitation, MM = Missing Value Source: NWS Daily Summary

Daily Weather History Graph

Daily Weather History Graph

Search for Another Location

Airport:

Trip Planner

Search our weather history database for the weather conditions in past years. The results will help you decide how hot, cold, wet, or windy it might be!

Date:

Astronomy

Apr. 21, 2012 Rise Set
Actual Time 6:33 AM CDT 7:39 PM CDT
Civil Twilight 6:09 AM CDT 8:04 PM CDT
Nautical Twilight 5:39 AM CDT 8:34 PM CDT
Astronomical Twilight 5:09 AM CDT 9:04 PM CDT
Moon 6:33 AM CDT (4/21) 8:15 PM CDT (4/21)
Length of Visible Light 13h 55m
Length of Day
13h 05m
New Moon, 0% of the Moon is Illuminated
Apr 21
New Moon
Apr 29
First Quarter
May 5
Full
May 12
Last Quarter
May 20
New

Hourly Weather History & Observations

Time (CDT) Temp. Dew Point Humidity Pressure Visibility Wind Dir Wind Speed Gust Speed Precip Events Conditions
12:25 AM 66.2 °F 59.0 °F 78% 29.78 in 10.0 mi ENE 3.5 mph - N/A   Mostly Cloudy
12:53 AM 66.9 °F 59.0 °F 76% 29.76 in 10.0 mi NE 8.1 mph - N/A   Overcast
1:20 AM 66.2 °F 59.0 °F 78% 29.76 in 10.0 mi NE 9.2 mph - N/A   Overcast
1:53 AM 66.9 °F 59.0 °F 76% 29.76 in 10.0 mi NNE 8.1 mph - N/A   Overcast
2:41 AM 64.4 °F 57.2 °F 77% 29.74 in 10.0 mi NNW 11.5 mph - N/A   Mostly Cloudy
2:53 AM 64.9 °F 57.9 °F 78% 29.73 in 10.0 mi NNW 8.1 mph - N/A   Mostly Cloudy
3:02 AM 64.4 °F 57.2 °F 77% 29.73 in 10.0 mi NNW 10.4 mph - N/A   Overcast
3:53 AM 64.9 °F 59.0 °F 81% 29.73 in 10.0 mi North 6.9 mph - N/A   Overcast
4:53 AM 64.9 °F 59.0 °F 81% 29.72 in 10.0 mi North 8.1 mph - N/A   Overcast
5:29 AM 62.6 °F 60.8 °F 94% 29.72 in 10.0 mi North 9.2 mph - 0.00 in   Overcast
5:53 AM 63.0 °F 60.1 °F 90% 29.72 in 10.0 mi North 10.4 mph - 0.00 in   Overcast
6:06 AM 62.6 °F 60.8 °F 94% 29.71 in 10.0 mi North 15.0 mph - N/A   Overcast
6:48 AM 62.6 °F 59.0 °F 88% 29.72 in 6.0 mi NNE 12.7 mph 24.2 mph 0.04 in Rain Rain
6:53 AM 62.1 °F 59.0 °F 90% 29.73 in 6.0 mi NNE 16.1 mph - 0.05 in Rain Rain
7:09 AM 60.8 °F 59.0 °F 94% 29.73 in 3.0 mi North 16.1 mph - 0.06 in Rain Heavy Rain
7:16 AM 60.8 °F 57.2 °F 88% 29.74 in 3.0 mi North 20.7 mph 25.3 mph 0.10 in Rain Heavy Rain
7:30 AM 60.8 °F 57.2 °F 88% 29.74 in 1.8 mi North 23.0 mph 31.1 mph 0.24 in Rain Heavy Rain
7:44 AM 59.0 °F 57.2 °F 94% 29.76 in 0.8 mi North 26.5 mph 32.2 mph 0.51 in Rain Heavy Rain
7:53 AM 59.0 °F 57.0 °F 93% 29.76 in 2.0 mi North 21.9 mph 29.9 mph 0.55 in Rain Heavy Rain
7:57 AM 59.0 °F 57.2 °F 94% 29.77 in 4.0 mi North 19.6 mph 28.8 mph 0.01 in Rain Rain
8:07 AM 59.0 °F 57.2 °F 94% 29.77 in 5.0 mi North 20.7 mph 33.4 mph 0.02 in Rain Rain
8:53 AM 59.0 °F 55.9 °F 90% 29.79 in 10.0 mi North 13.8 mph 26.5 mph 0.03 in   Overcast
9:53 AM 59.0 °F 55.0 °F 87% 29.81 in 10.0 mi North 18.4 mph 24.2 mph N/A   Overcast
10:33 AM 59.0 °F 55.4 °F 88% 29.82 in 10.0 mi North 19.6 mph 31.1 mph N/A   Overcast
10:53 AM 60.1 °F 55.0 °F 83% 29.83 in 10.0 mi North 13.8 mph 24.2 mph N/A   Overcast
11:53 AM 57.9 °F 54.0 °F 87% 29.85 in 10.0 mi North 17.3 mph 27.6 mph N/A   Overcast
12:34 PM 62.6 °F 53.6 °F 72% 29.85 in 10.0 mi North 13.8 mph 25.3 mph N/A   Overcast
12:53 PM 63.0 °F 55.0 °F 75% 29.85 in 10.0 mi NNE 18.4 mph 26.5 mph N/A   Overcast
1:53 PM 62.1 °F 53.1 °F 72% 29.86 in 10.0 mi North 19.6 mph 27.6 mph N/A   Overcast
2:53 PM 64.9 °F 53.1 °F 65% 29.84 in 10.0 mi NNE 18.4 mph 26.5 mph N/A   Overcast
3:53 PM 66.9 °F 53.1 °F 61% 29.84 in 10.0 mi NNW 17.3 mph 26.5 mph N/A   Mostly Cloudy
4:53 PM 64.0 °F 53.1 °F 67% 29.85 in 10.0 mi North 17.3 mph 23.0 mph N/A   Mostly Cloudy
5:53 PM 62.1 °F 52.0 °F 70% 29.86 in 10.0 mi North 18.4 mph 24.2 mph N/A   Overcast
6:53 PM 60.1 °F 51.1 °F 72% 29.88 in 10.0 mi North 13.8 mph - N/A   Overcast
7:27 PM 59.0 °F 51.8 °F 77% 29.89 in 10.0 mi North 12.7 mph - N/A   Scattered Clouds
7:53 PM 57.9 °F 51.1 °F 78% 29.90 in 10.0 mi NNE 9.2 mph - N/A   Clear
8:53 PM 55.9 °F 50.0 °F 80% 29.91 in 10.0 mi North 6.9 mph - N/A   Clear
9:53 PM 55.0 °F 50.0 °F 83% 29.93 in 10.0 mi North 4.6 mph - N/A   Clear
10:53 PM 54.0 °F 50.0 °F 86% 29.94 in 10.0 mi North 4.6 mph - N/A   Clear
11:53 PM 54.0 °F 50.0 °F 86% 29.94 in 10.0 mi North 5.8 mph - N/A   Clear